map of LEGA home
LEGA - Airport
Location
City:  Granada, Andalusia, Spain
Name:Armilla
ICAO:LEGA

Details
Type:Airport (Aerodrome, Airfield)
Latitude:3708'00"N (37.133222)
Longitude:338'08"W (-3.635693)
Datum:WGS 1984
Elevation:2297 ft (700 m)
Variation:0.37W (WMM2015v2 magnetic declination)
0.15 annual change
Runways:1
Longest:4265 × 98 ft (1300 × 30 m), paved

Time
Time Zone:UTC+1 (DST+2)
Local Time:

Weather
METAR:LEGA 041400Z 29005KT CAVOK 13/M04 Q1026

Related Locations
Nearby:
Farthest:NZUN: 12419 mi / 19986 km
Pauanui Beach, WKO, NZ

Find:

   beyond  
but within

Other Information
Maps:
NOTAMs:
Links:
Sources:

  
  • flag of Spain
  • flag of Andalusia
  

Sectional Chart

Flight Planning
at skyvector.com

Satellite Image

Google Maps Satellite view

 

Copyright © 2004-2019 Karl L. Swartz. All rights reserved.
The Great Circle Mapper name and logo are trademarks of the Great Circle Mapper.
All other trademarks mentioned herein belong to their respective owners.
Please see credits for attibutions and further copyright information.

  Follow gcmap on Facebook Follow gcmap on Twitter GCmap on LinkedIn

hCard Microformat

Geo Microformat